STARLINK-4576 (53566 NORAD) Tracking and Keplerian Element Data

This shows tracking and keplerian element data for the satellite.

Feedback or suggestion? Click here.




ElementValue
Catalog53566
NameSTARLINK-4576
Epoch Orbit1461
Epoch Day325.25001157
Epoch Year2022
RAAN61.0394
Inclination53.2156
Eccentricity0.0001213
Argument of Perigee78.4106
Mean Anonmoly2.6969
Mean Motion15.08824277
Decay Rate0.00038725
L11 53566U 22101AR 22325.25001157 .00038725 00000+0 24390-2 0 9990
L22 53566 53.2156 61.0394 0001213 78.4106 2.6969 15.08824277 14613



Live tracking and technical data element details for STARLINK-4576 (NORAD 53566). STARLINK-4576 can be tracked NOW for your location showing map with azimuth and elevation plus other details from your city location.







IsCatalogInMostPopularTable: catalog: 53566, numindb: 4
Update: records affected: 1



GetName: 53566 STARLINK-4576

Hit Count: updated at: Thu, 08 Dec 2022 18:58:49 GMT